,,PA_Meas_PMT16A,,PR_Meas_QMR101_102,,RH_Meas_QMH101,,SR_Meas_QMS101,,TA_Meas_QMH101,,GenWind,,GenWind,
time,status,PA,status,PR,status,RH,status,SR,status,TA,status,DirAvg,status,SpdAvg,
2011-03-27, 00:00:04,VALID,917.352,VALID,0,VALID,95.7044,VALID,0,VALID,18.9214,VALID,23,VALID,0.746484,
2011-03-27, 00:01:04,VALID,917.352,VALID,0,VALID,95.6662,VALID,0,VALID,18.9214,VALID,23,VALID,0.652734,
2011-03-27, 00:02:04,VALID,917.334,VALID,0,VALID,95.6357,VALID,0,VALID,18.9214,VALID,23,VALID,0.626172,
2011-03-27, 00:03:04,VALID,917.321,VALID,0,VALID,95.6205,VALID,0,VALID,18.9424,VALID,23,VALID,0.598047,
2011-03-27, 00:04:04,VALID,917.304,VALID,0,VALID,95.651,VALID,0.107441,VALID,18.9424,VALID,23,VALID,0.896484,
2011-03-27, 00:05:04,VALID,917.332,VALID,0,VALID,95.6967,VALID,0.107441,VALID,18.9619,VALID,23,VALID,0.311719,
2011-03-27, 00:06:04,VALID,917.309,VALID,0,VALID,95.6815,VALID,0.107441,VALID,18.9409,VALID,23,VALID,0.639063,
2011-03-27, 00:07:04,VALID,917.291,VALID,0,VALID,95.712,VALID,0.107441,VALID,18.9424,VALID,23,VALID,0.0191406,
2011-03-27, 00:08:04,VALID,917.292,VALID,0,VALID,95.7044,VALID,0,VALID,18.9409,VALID,23,VALID,0.170312,
2011-03-27, 00:09:04,VALID,917.236,VALID,0,VALID,95.6967,VALID,0.107441,VALID,18.9409,VALID,23,VALID,0.976172,
2011-03-27, 00:10:04,VALID,917.22,VALID,0,VALID,95.7196,VALID,0,VALID,18.9619,VALID,23,VALID,0.740625,
2011-03-27, 00:11:04,VALID,917.194,VALID,0,VALID,95.6967,VALID,0.107441,VALID,18.9604,VALID,23,VALID,1.51172,
2011-03-27, 00:12:04,VALID,917.213,VALID,0,VALID,95.6662,VALID,0,VALID,19.0203,VALID,24,VALID,0.760156,
2011-03-27, 00:13:04,VALID,917.233,VALID,0,VALID,95.6434,VALID,0,VALID,19.0398,VALID,24,VALID,0.378125,
2011-03-27, 00:14:04,VALID,917.244,VALID,0,VALID,95.6357,VALID,0.107441,VALID,19.0384,VALID,24,VALID,0.0714844,
2011-03-27, 00:15:04,VALID,917.256,VALID,0,VALID,95.5519,VALID,0.107441,VALID,19.0774,VALID,24,VALID,0.428516,
2011-03-27, 00:16:04,VALID,917.247,VALID,0,VALID,95.4604,VALID,0,VALID,19.0788,VALID,21,VALID,1.00352,
2011-03-27, 00:17:04,VALID,917.239,VALID,0,VALID,95.3842,VALID,0.107441,VALID,19.0969,VALID,19,VALID,0.229297,
2011-03-27, 00:18:04,VALID,917.234,VALID,0,VALID,95.2927,VALID,0.107441,VALID,19.1178,VALID,19,VALID,0.806641,
2011-03-27, 00:19:04,VALID,917.246,VALID,0,VALID,95.1783,VALID,0.107441,VALID,19.1359,VALID,19,VALID,0.553125,
2011-03-27, 00:20:04,VALID,917.201,VALID,0,VALID,95.1021,VALID,0.107441,VALID,19.1554,VALID,19,VALID,0.24375,
2011-03-27, 00:21:04,VALID,917.203,VALID,0,VALID,95.0411,VALID,0,VALID,19.1178,VALID,19,VALID,0.916016,
2011-03-27, 00:22:04,VALID,917.161,VALID,0,VALID,95.064,VALID,0,VALID,19.1583,VALID,19,VALID,1.03203,
2011-03-27, 00:23:04,VALID,917.167,VALID,0,VALID,95.0106,VALID,0,VALID,19.1778,VALID,19,VALID,1.00664,
2011-03-27, 00:24:04,VALID,917.143,VALID,0,VALID,94.9573,VALID,0,VALID,19.1958,VALID,19,VALID,1.24297,
2011-03-27, 00:25:04,VALID,917.155,VALID,0,VALID,94.8048,VALID,0,VALID,19.1958,VALID,4,VALID,1.16836,
2011-03-27, 00:26:04,VALID,917.165,VALID,0,VALID,94.6218,VALID,0,VALID,19.2153,VALID,4,VALID,1.31875,
2011-03-27, 00:27:04,VALID,917.16,VALID,0,VALID,94.3703,VALID,0,VALID,19.2753,VALID,4,VALID,1.17969,
2011-03-27, 00:28:04,VALID,917.155,VALID,0,VALID,94.2254,VALID,0,VALID,19.3143,VALID,4,VALID,1.01719,
2011-03-27, 00:29:04,VALID,917.142,VALID,0,VALID,94.1721,VALID,0,VALID,19.2933,VALID,4,VALID,0.884375,
2011-03-27, 00:30:04,VALID,917.117,VALID,0,VALID,94.1416,VALID,0,VALID,19.3143,VALID,4,VALID,1.09141,
2011-03-27, 00:31:04,VALID,917.128,VALID,0,VALID,94.073,VALID,0,VALID,19.3143,VALID,4,VALID,1.12305,
2011-03-27, 00:32:04,VALID,917.135,VALID,0,VALID,94.1034,VALID,0,VALID,19.3143,VALID,4,VALID,0.824609,
2011-03-27, 00:33:04,VALID,917.128,VALID,0,VALID,94.0501,VALID,0,VALID,19.2933,VALID,4,VALID,0.708203,
2011-03-27, 00:34:04,VALID,917.092,VALID,0,VALID,94.1111,VALID,0,VALID,19.2933,VALID,11,VALID,1.33086,
2011-03-27, 00:35:04,VALID,917.1,VALID,0,VALID,94.1721,VALID,0,VALID,19.3128,VALID,11,VALID,1.07109,
2011-03-27, 00:36:04,VALID,917.097,VALID,0,VALID,94.2102,VALID,0,VALID,19.3128,VALID,11,VALID,0.9,
2011-03-27, 00:37:04,VALID,917.07,VALID,0,VALID,94.3169,VALID,0,VALID,19.2933,VALID,11,VALID,0.511719,
2011-03-27, 00:38:04,VALID,917.063,VALID,0,VALID,94.3779,VALID,0,VALID,19.2753,VALID,11,VALID,0.513672,
2011-03-27, 00:39:04,VALID,917.021,VALID,0,VALID,94.477,VALID,0,VALID,19.2363,VALID,322,VALID,0.825,
2011-03-27, 00:40:04,VALID,917.014,VALID,0,VALID,94.6523,VALID,0,VALID,19.1958,VALID,327,VALID,0.842188,
2011-03-27, 00:41:04,VALID,916.99,VALID,0,VALID,94.7514,VALID,0,VALID,19.1763,VALID,327,VALID,0.567578,
2011-03-27, 00:42:04,VALID,917.006,VALID,0,VALID,94.8582,VALID,0,VALID,19.1583,VALID,327,VALID,0.479688,
2011-03-27, 00:43:04,VALID,916.986,VALID,0,VALID,95.0564,VALID,0,VALID,19.1178,VALID,327,VALID,0.247656,
2011-03-27, 00:44:04,VALID,917.035,VALID,0,VALID,95.186,VALID,0,VALID,19.0998,VALID,327,VALID,0.0183594,
2011-03-27, 00:45:04,VALID,916.995,VALID,0,VALID,95.3384,VALID,0,VALID,19.0998,VALID,327,VALID,0.0597656,
2011-03-27, 00:46:04,VALID,916.98,VALID,0,VALID,95.4071,VALID,0,VALID,19.0593,VALID,327,VALID,0.716406,
2011-03-27, 00:47:04,VALID,916.951,VALID,0,VALID,95.5519,VALID,0,VALID,19.0608,VALID,327,VALID,0.802734,
2011-03-27, 00:48:04,VALID,916.943,VALID,0.2,VALID,95.7044,VALID,0,VALID,19.0398,VALID,327,VALID,0.743359,
2011-03-27, 00:49:04,VALID,916.885,VALID,0,VALID,95.8263,VALID,0,VALID,19.0803,VALID,31,VALID,1.4293,
2011-03-27, 00:50:04,VALID,916.889,VALID,0,VALID,95.8492,VALID,0,VALID,19.0413,VALID,24,VALID,0.901953,
2011-03-27, 00:51:04,VALID,916.918,VALID,0,VALID,95.9636,VALID,0,VALID,19.0218,VALID,24,VALID,0.0792969,
2011-03-27, 00:52:04,VALID,916.944,VALID,0,VALID,96.0245,VALID,0,VALID,19.0023,VALID,24,VALID,0.527344,
2011-03-27, 00:53:04,VALID,916.956,VALID,0,VALID,96.1008,VALID,0,VALID,18.9828,VALID,24,VALID,0.330078,
2011-03-27, 00:54:04,VALID,916.961,VALID,0,VALID,96.1694,VALID,0,VALID,18.9633,VALID,24,VALID,1.06328,
2011-03-27, 00:55:04,VALID,916.934,VALID,0,VALID,96.238,VALID,0,VALID,18.9828,VALID,24,VALID,0.966406,
2011-03-27, 00:56:04,VALID,916.933,VALID,0,VALID,96.2761,VALID,0,VALID,18.9619,VALID,24,VALID,0.339844,
2011-03-27, 00:57:04,VALID,916.932,VALID,0,VALID,96.3371,VALID,0,VALID,19.0023,VALID,24,VALID,0.588672,
2011-03-27, 00:58:04,VALID,916.921,VALID,0,VALID,96.3752,VALID,0,VALID,18.9619,VALID,24,VALID,0.639453,
2011-03-27, 00:59:04,VALID,916.892,VALID,0,VALID,96.4286,VALID,0,VALID,18.9424,VALID,24,VALID,1.63828,
2011-03-27, 01:00:04,VALID,916.897,VALID,0,VALID,96.4819,VALID,0,VALID,18.9633,VALID,22,VALID,1.75937,
2011-03-27, 01:01:04,VALID,916.868,VALID,0.2,VALID,96.5353,VALID,0,VALID,18.9619,VALID,44,VALID,1.59727,
2011-03-27, 01:02:04,VALID,916.839,VALID,0,VALID,96.5506,VALID,0,VALID,18.9619,VALID,31,VALID,1.74492,
2011-03-27, 01:03:04,VALID,916.874,VALID,0,VALID,96.6039,VALID,0,VALID,19.0023,VALID,30,VALID,0.728516,
2011-03-27, 01:04:04,VALID,916.882,VALID,0,VALID,96.6573,VALID,0,VALID,18.9814,VALID,30,VALID,0.216797,
2011-03-27, 01:05:04,VALID,916.909,VALID,0,VALID,96.703,VALID,0,VALID,19.0218,VALID,14,VALID,1.88711,
2011-03-27, 01:06:04,VALID,916.928,VALID,0,VALID,96.7411,VALID,0,VALID,19.0413,VALID,24,VALID,1.40078,
2011-03-27, 01:07:04,VALID,916.964,VALID,0,VALID,96.7411,VALID,0,VALID,19.0608,VALID,24,VALID,0.657031,
2011-03-27, 01:08:04,VALID,916.968,VALID,0,VALID,96.7488,VALID,0,VALID,19.0803,VALID,24,VALID,1.11367,
2011-03-27, 01:09:04,VALID,916.949,VALID,0,VALID,96.7411,VALID,0,VALID,19.0803,VALID,28,VALID,2.37227,
2011-03-27, 01:10:04,VALID,916.923,VALID,0,VALID,96.7564,VALID,0,VALID,19.0608,VALID,33,VALID,2.78164,
2011-03-27, 01:11:04,VALID,916.957,VALID,0.2,VALID,96.7564,VALID,0,VALID,19.0608,VALID,20,VALID,2.45937,
2011-03-27, 01:12:04,VALID,916.958,VALID,0,VALID,96.7945,VALID,0,VALID,19.0608,VALID,27,VALID,2.07305,
2011-03-27, 01:13:04,VALID,916.92,VALID,0,VALID,96.8021,VALID,0,VALID,19.0608,VALID,21,VALID,2.69766,
2011-03-27, 01:14:04,VALID,916.959,VALID,0,VALID,96.8174,VALID,0,VALID,19.0608,VALID,23,VALID,2.25938,
2011-03-27, 01:15:04,VALID,916.956,VALID,0,VALID,96.8479,VALID,0,VALID,19.0608,VALID,44,VALID,1.02305,
2011-03-27, 01:16:04,VALID,916.967,VALID,0,VALID,96.8784,VALID,0,VALID,19.0593,VALID,25,VALID,1.11172,
2011-03-27, 01:17:04,VALID,916.965,VALID,0,VALID,96.9012,VALID,0,VALID,19.0803,VALID,20,VALID,1.14922,
2011-03-27, 01:18:04,VALID,916.956,VALID,0,VALID,96.9089,VALID,0,VALID,19.0803,VALID,25,VALID,1.47578,
2011-03-27, 01:19:04,VALID,916.966,VALID,0,VALID,96.9089,VALID,0,VALID,19.0998,VALID,12,VALID,1.02578,
2011-03-27, 01:20:04,VALID,916.917,VALID,0,VALID,96.9165,VALID,0,VALID,19.0803,VALID,19,VALID,1.73711,
2011-03-27, 01:21:04,VALID,916.938,VALID,0,VALID,96.947,VALID,0,VALID,19.0983,VALID,22,VALID,1.03828,
2011-03-27, 01:22:04,VALID,916.931,VALID,0,VALID,96.9241,VALID,0.107441,VALID,19.0983,VALID,22,VALID,0.856641,
2011-03-27, 01:23:04,VALID,916.914,VALID,0,VALID,96.947,VALID,0.107441,VALID,19.0983,VALID,40,VALID,1.82305,
2011-03-27, 01:24:04,VALID,916.922,VALID,0,VALID,96.9546,VALID,0.107441,VALID,19.0983,VALID,44,VALID,1.24258,
2011-03-27, 01:25:04,VALID,916.941,VALID,0,VALID,96.9622,VALID,0,VALID,19.1178,VALID,23,VALID,0.867969,
2011-03-27, 01:26:04,VALID,916.906,VALID,0,VALID,96.9775,VALID,0,VALID,19.0983,VALID,23,VALID,1.42422,
2011-03-27, 01:27:04,VALID,916.882,VALID,0,VALID,97.0003,VALID,0.107441,VALID,19.1164,VALID,23,VALID,2.03516,
2011-03-27, 01:28:04,VALID,916.858,VALID,0,VALID,97.0156,VALID,0,VALID,19.1373,VALID,22,VALID,0.895312,
2011-03-27, 01:29:04,VALID,916.859,VALID,0,VALID,97.0232,VALID,0,VALID,19.1763,VALID,22,VALID,2.08672,
2011-03-27, 01:30:04,VALID,916.818,VALID,0,VALID,96.9927,VALID,0.107441,VALID,19.1763,VALID,22,VALID,1.94453,
2011-03-27, 01:31:04,VALID,916.852,VALID,0,VALID,96.9851,VALID,0.107441,VALID,19.1749,VALID,22,VALID,1.60234,
2011-03-27, 01:32:04,VALID,916.772,VALID,0,VALID,96.9622,VALID,0.107441,VALID,19.1763,VALID,30,VALID,1.75586,
2011-03-27, 01:33:04,VALID,916.772,VALID,0,VALID,96.9622,VALID,0.107441,VALID,19.1359,VALID,26,VALID,1.68867,
2011-03-27, 01:34:04,VALID,916.723,VALID,0,VALID,96.9698,VALID,0.107441,VALID,19.1554,VALID,22,VALID,1.72461,
2011-03-27, 01:35:04,VALID,916.693,VALID,0,VALID,96.947,VALID,0.107441,VALID,19.1568,VALID,12,VALID,1.64805,
2011-03-27, 01:36:04,VALID,916.642,VALID,0,VALID,96.9317,VALID,0.107441,VALID,19.1568,VALID,336,VALID,1.29727,
2011-03-27, 01:37:04,VALID,916.638,VALID,0,VALID,96.9317,VALID,0,VALID,19.1554,VALID,35,VALID,1.44609,
2011-03-27, 01:38:04,VALID,916.608,VALID,0,VALID,96.947,VALID,0.107441,VALID,19.1958,VALID,34,VALID,0.258984,
2011-03-27, 01:39:04,VALID,916.548,VALID,0,VALID,96.8936,VALID,0,VALID,19.1763,VALID,34,VALID,1.39141,
2011-03-27, 01:40:04,VALID,916.532,VALID,0,VALID,96.9012,VALID,0.107441,VALID,19.1763,VALID,15,VALID,0.783984,
2011-03-27, 01:41:04,VALID,916.533,VALID,0,VALID,96.886,VALID,0.107441,VALID,19.1359,VALID,15,VALID,1.07109,
2011-03-27, 01:42:04,VALID,916.5,VALID,0,VALID,96.8936,VALID,0.107441,VALID,19.1568,VALID,49,VALID,0.775391,
2011-03-27, 01:43:04,VALID,916.466,VALID,0,VALID,96.886,VALID,0.107441,VALID,19.1568,VALID,58,VALID,0.425781,
2011-03-27, 01:44:04,VALID,916.456,VALID,0,VALID,96.886,VALID,0,VALID,19.1359,VALID,39,VALID,0.451172,
2011-03-27, 01:45:04,VALID,916.399,VALID,0,VALID,96.8631,VALID,0.107441,VALID,19.1554,VALID,360,VALID,0.983203,
2011-03-27, 01:46:04,VALID,916.37,VALID,0,VALID,96.825,VALID,0,VALID,19.1373,VALID,354,VALID,1.09414,
2011-03-27, 01:47:04,VALID,916.35,VALID,0,VALID,96.8098,VALID,0.107441,VALID,19.1178,VALID,28,VALID,1.56602,
2011-03-27, 01:48:04,VALID,916.336,VALID,0,VALID,96.7716,VALID,0.107441,VALID,19.0969,VALID,10,VALID,1.45313,
2011-03-27, 01:49:04,VALID,916.353,VALID,0,VALID,96.7793,VALID,0.107441,VALID,19.0774,VALID,349,VALID,1.4207,
2011-03-27, 01:50:04,VALID,916.356,VALID,0,VALID,96.7564,VALID,0.107441,VALID,19.0579,VALID,354,VALID,1.07305,
2011-03-27, 01:51:04,VALID,916.327,VALID,0,VALID,96.7259,VALID,0,VALID,19.0608,VALID,6,VALID,1.48711,
2011-03-27, 01:52:04,VALID,916.311,VALID,0,VALID,96.764,VALID,0,VALID,19.0398,VALID,338,VALID,1.19414,
2011-03-27, 01:53:04,VALID,916.318,VALID,0,VALID,96.7716,VALID,0,VALID,19.0608,VALID,338,VALID,0.638672,
2011-03-27, 01:54:04,VALID,916.299,VALID,0,VALID,96.8098,VALID,0,VALID,19.0203,VALID,338,VALID,0.699609,
2011-03-27, 01:55:04,VALID,916.271,VALID,0,VALID,96.8098,VALID,0,VALID,19.0398,VALID,338,VALID,0.187891,
2011-03-27, 01:56:04,VALID,916.251,VALID,0,VALID,96.7869,VALID,0,VALID,19.0203,VALID,338,VALID,0.65,
2011-03-27, 01:57:04,VALID,916.271,VALID,0,VALID,96.825,VALID,0,VALID,19.0203,VALID,338,VALID,0.167187,
2011-03-27, 01:58:04,VALID,916.265,VALID,0,VALID,96.7869,VALID,0,VALID,19.0218,VALID,338,VALID,0.314453,
2011-03-27, 01:59:04,VALID,916.3,VALID,0,VALID,96.8021,VALID,0,VALID,19.0218,VALID,338,VALID,0,
2011-03-27, 02:00:04,VALID,916.242,VALID,0,VALID,96.8021,VALID,0,VALID,19.0413,VALID,338,VALID,0,
2011-03-27, 02:01:04,VALID,916.271,VALID,0,VALID,96.8174,VALID,0,VALID,19.0413,VALID,338,VALID,0,
2011-03-27, 02:02:04,VALID,916.255,VALID,0,VALID,96.8479,VALID,0,VALID,19.0608,VALID,338,VALID,0.440234,
2011-03-27, 02:03:04,VALID,916.284,VALID,0,VALID,96.8479,VALID,0,VALID,19.0413,VALID,338,VALID,0.634375,
2011-03-27, 02:04:04,VALID,916.295,VALID,0,VALID,96.8707,VALID,0,VALID,19.0398,VALID,15,VALID,1.75977,
2011-03-27, 02:05:04,VALID,916.281,VALID,0,VALID,96.8479,VALID,0,VALID,19.0983,VALID,3,VALID,1.11523,
2011-03-27, 02:06:04,VALID,916.294,VALID,0,VALID,96.825,VALID,0,VALID,19.1583,VALID,2,VALID,0.817578,
2011-03-27, 02:07:04,VALID,916.312,VALID,0,VALID,96.764,VALID,0,VALID,19.1763,VALID,2,VALID,0.685547,
2011-03-27, 02:08:04,VALID,916.283,VALID,0,VALID,96.703,VALID,0,VALID,19.1958,VALID,2,VALID,0.105859,
2011-03-27, 02:09:04,VALID,916.292,VALID,0,VALID,96.6649,VALID,0,VALID,19.1763,VALID,2,VALID,0,
2011-03-27, 02:10:04,VALID,916.253,VALID,0,VALID,96.6344,VALID,0,VALID,19.2168,VALID,2,VALID,0.386328,
2011-03-27, 02:11:04,VALID,916.289,VALID,0,VALID,96.5963,VALID,0,VALID,19.1973,VALID,2,VALID,0.942969,
2011-03-27, 02:12:04,VALID,916.313,VALID,0,VALID,96.5201,VALID,0,VALID,19.1763,VALID,2,VALID,0.744922,
2011-03-27, 02:13:04,VALID,916.29,VALID,0,VALID,96.5582,VALID,0,VALID,19.2168,VALID,2,VALID,1.01641,
2011-03-27, 02:14:04,VALID,916.281,VALID,0,VALID,96.5124,VALID,0,VALID,19.1973,VALID,2,VALID,1.22461,
2011-03-27, 02:15:04,VALID,916.265,VALID,0,VALID,96.4286,VALID,0,VALID,19.2168,VALID,3,VALID,1.29258,
2011-03-27, 02:16:04,VALID,916.331,VALID,0,VALID,96.3752,VALID,0,VALID,19.1973,VALID,3,VALID,0.763672,
2011-03-27, 02:17:04,VALID,916.335,VALID,0,VALID,96.3524,VALID,0,VALID,19.1973,VALID,307,VALID,1.09492,
2011-03-27, 02:18:04,VALID,916.324,VALID,0,VALID,96.3447,VALID,0,VALID,19.1778,VALID,208,VALID,0.308594,
2011-03-27, 02:19:04,VALID,916.324,VALID,0,VALID,96.3295,VALID,0,VALID,19.1373,VALID,208,VALID,0.473437,
2011-03-27, 02:20:04,VALID,916.296,VALID,0,VALID,96.3676,VALID,0,VALID,19.1388,VALID,208,VALID,0.692969,
2011-03-27, 02:21:04,VALID,916.319,VALID,0,VALID,96.4057,VALID,0,VALID,19.1193,VALID,208,VALID,0.102734,
2011-03-27, 02:22:04,VALID,916.326,VALID,0,VALID,96.4515,VALID,0,VALID,19.1193,VALID,208,VALID,0.492188,
2011-03-27, 02:23:04,VALID,916.296,VALID,0,VALID,96.5048,VALID,0,VALID,19.1388,VALID,208,VALID,0.782031,
2011-03-27, 02:24:04,VALID,916.282,VALID,0,VALID,96.5201,VALID,0,VALID,19.1373,VALID,208,VALID,0.719531,
2011-03-27, 02:25:04,VALID,916.299,VALID,0,VALID,96.5734,VALID,0,VALID,19.1568,VALID,208,VALID,0.827344,
2011-03-27, 02:26:04,VALID,916.299,VALID,0,VALID,96.5658,VALID,0,VALID,19.1763,VALID,208,VALID,0,
2011-03-27, 02:27:04,VALID,916.294,VALID,0,VALID,96.5048,VALID,0,VALID,19.1373,VALID,208,VALID,0.165625,
2011-03-27, 02:28:04,VALID,916.323,VALID,0,VALID,96.5201,VALID,0,VALID,19.1973,VALID,208,VALID,0.360156,
2011-03-27, 02:29:04,VALID,916.323,VALID,0,VALID,96.5124,VALID,0,VALID,19.2153,VALID,208,VALID,0.726563,
2011-03-27, 02:30:04,VALID,916.342,VALID,0,VALID,96.4972,VALID,0,VALID,19.1958,VALID,208,VALID,0.497656,
2011-03-27, 02:31:04,VALID,916.343,VALID,0,VALID,96.5124,VALID,0,VALID,19.2168,VALID,208,VALID,0.590625,
2011-03-27, 02:32:04,VALID,916.324,VALID,0,VALID,96.5124,VALID,0,VALID,19.1958,VALID,208,VALID,0.683594,
2011-03-27, 02:33:04,VALID,916.34,VALID,0,VALID,96.4972,VALID,0,VALID,19.2153,VALID,212,VALID,0.789844,
2011-03-27, 02:34:04,VALID,916.352,VALID,0,VALID,96.4972,VALID,0,VALID,19.2153,VALID,213,VALID,0.584375,
2011-03-27, 02:35:04,VALID,916.321,VALID,0,VALID,96.5506,VALID,0,VALID,19.2558,VALID,238,VALID,1.41094,
2011-03-27, 02:36:05,VALID,916.286,VALID,0,VALID,96.4667,VALID,0,VALID,19.2948,VALID,14,VALID,1.58438,
2011-03-27, 02:37:05,VALID,916.288,VALID,0,VALID,96.4286,VALID,0,VALID,19.2738,VALID,25,VALID,0.483984,
2011-03-27, 02:38:05,VALID,916.323,VALID,0,VALID,96.3905,VALID,0,VALID,19.3128,VALID,25,VALID,0.324609,
2011-03-27, 02:39:05,VALID,916.294,VALID,0,VALID,96.3447,VALID,0,VALID,19.3533,VALID,236,VALID,1.86563,
2011-03-27, 02:40:05,VALID,916.315,VALID,0,VALID,96.2609,VALID,0,VALID,19.3908,VALID,262,VALID,0.946484,
2011-03-27, 02:41:05,VALID,916.294,VALID,0,VALID,96.177,VALID,0,VALID,19.4103,VALID,296,VALID,0.317187,
2011-03-27, 02:42:05,VALID,916.311,VALID,0,VALID,96.0398,VALID,0,VALID,19.4298,VALID,46,VALID,0.994531,
2011-03-27, 02:43:05,VALID,916.339,VALID,0,VALID,95.9864,VALID,0,VALID,19.4508,VALID,240,VALID,0.647266,
2011-03-27, 02:44:05,VALID,916.332,VALID,0,VALID,95.9102,VALID,0,VALID,19.4493,VALID,241,VALID,0.976563,
2011-03-27, 02:45:05,VALID,916.363,VALID,0,VALID,95.8721,VALID,0,VALID,19.4703,VALID,278,VALID,0.909375,
2011-03-27, 02:46:05,VALID,916.386,VALID,0,VALID,95.773,VALID,0,VALID,19.5288,VALID,243,VALID,0.598828,
2011-03-27, 02:47:05,VALID,916.396,VALID,0,VALID,95.6739,VALID,0,VALID,19.5078,VALID,242,VALID,0.757422,
2011-03-27, 02:48:05,VALID,916.346,VALID,0,VALID,95.6205,VALID,0,VALID,19.4883,VALID,243,VALID,0.258594,
2011-03-27, 02:49:05,VALID,916.335,VALID,0,VALID,95.59,VALID,0,VALID,19.5078,VALID,243,VALID,0.547266,
2011-03-27, 02:50:05,VALID,916.328,VALID,0,VALID,95.5976,VALID,0,VALID,19.4688,VALID,243,VALID,0.219922,
2011-03-27, 02:51:05,VALID,916.315,VALID,0,VALID,95.6586,VALID,0.107441,VALID,19.4868,VALID,243,VALID,0.191797,
2011-03-27, 02:52:05,VALID,916.307,VALID,0,VALID,95.6891,VALID,0,VALID,19.4883,VALID,243,VALID,0.636719,
2011-03-27, 02:53:05,VALID,916.308,VALID,0,VALID,95.6434,VALID,0.107441,VALID,19.4673,VALID,257,VALID,0.68125,
2011-03-27, 02:54:05,VALID,916.242,VALID,0,VALID,95.6357,VALID,0,VALID,19.4868,VALID,257,VALID,0.54375,
2011-03-27, 02:55:05,VALID,916.235,VALID,0,VALID,95.59,VALID,0,VALID,19.4868,VALID,257,VALID,0.319922,
2011-03-27, 02:56:05,VALID,916.232,VALID,0,VALID,95.529,VALID,0.107441,VALID,19.4868,VALID,316,VALID,0.796484,
2011-03-27, 02:57:05,VALID,916.256,VALID,0,VALID,95.5367,VALID,0.107441,VALID,19.5078,VALID,316,VALID,0.401563,
2011-03-27, 02:58:05,VALID,916.233,VALID,0,VALID,95.4985,VALID,0,VALID,19.4673,VALID,316,VALID,1.0793,
2011-03-27, 02:59:05,VALID,916.233,VALID,0,VALID,95.5595,VALID,0.107441,VALID,19.4673,VALID,317,VALID,0.604297,
2011-03-27, 03:00:05,VALID,916.26,VALID,0,VALID,95.5748,VALID,0.107441,VALID,19.4478,VALID,317,VALID,0.805469,
2011-03-27, 03:01:05,VALID,916.237,VALID,0,VALID,95.6739,VALID,0,VALID,19.4283,VALID,329,VALID,0.911719,
2011-03-27, 03:02:05,VALID,916.24,VALID,0,VALID,95.7501,VALID,0,VALID,19.4088,VALID,56,VALID,0.772266,
2011-03-27, 03:03:05,VALID,916.216,VALID,0,VALID,95.834,VALID,0,VALID,19.3893,VALID,56,VALID,0.240234,
2011-03-27, 03:04:05,VALID,916.198,VALID,0,VALID,95.895,VALID,0.107441,VALID,19.3893,VALID,56,VALID,0.154687,
2011-03-27, 03:05:05,VALID,916.198,VALID,0,VALID,95.9254,VALID,0,VALID,19.3908,VALID,18,VALID,0.819531,
2011-03-27, 03:06:05,VALID,916.173,VALID,0,VALID,95.9559,VALID,0,VALID,19.3923,VALID,18,VALID,1.48633,
2011-03-27, 03:07:05,VALID,916.159,VALID,0,VALID,96.0017,VALID,0,VALID,19.3728,VALID,12,VALID,1.42383,
2011-03-27, 03:08:05,VALID,916.137,VALID,0,VALID,96.0169,VALID,0,VALID,19.3713,VALID,12,VALID,1.69023,
2011-03-27, 03:09:05,VALID,916.166,VALID,0,VALID,96.0017,VALID,0,VALID,19.3923,VALID,21,VALID,1.63906,
2011-03-27, 03:10:05,VALID,916.144,VALID,0,VALID,96.0093,VALID,0,VALID,19.4118,VALID,15,VALID,0.884375,
2011-03-27, 03:11:05,VALID,916.132,VALID,0,VALID,96.0169,VALID,0,VALID,19.3908,VALID,15,VALID,1.27969,
2011-03-27, 03:12:05,VALID,916.118,VALID,0,VALID,96.0398,VALID,0,VALID,19.4313,VALID,15,VALID,1.18438,
2011-03-27, 03:13:05,VALID,916.151,VALID,0,VALID,96.0169,VALID,0,VALID,19.4313,VALID,11,VALID,1.45938,
2011-03-27, 03:14:05,VALID,916.14,VALID,0,VALID,96.0398,VALID,0,VALID,19.4103,VALID,14,VALID,1.13711,
2011-03-27, 03:15:05,VALID,916.137,VALID,0,VALID,96.0245,VALID,0,VALID,19.4103,VALID,35,VALID,1.19961,
2011-03-27, 03:16:05,VALID,916.145,VALID,0,VALID,96.0169,VALID,0,VALID,19.4508,VALID,15,VALID,1.00781,
2011-03-27, 03:17:05,VALID,916.14,VALID,0,VALID,95.9864,VALID,0,VALID,19.4508,VALID,29,VALID,0.736719,
2011-03-27, 03:18:05,VALID,916.144,VALID,0,VALID,96.0093,VALID,0,VALID,19.4508,VALID,26,VALID,1.52813,
2011-03-27, 03:19:05,VALID,916.139,VALID,0,VALID,95.9636,VALID,0,VALID,19.4493,VALID,5,VALID,1.08281,
2011-03-27, 03:20:05,VALID,916.174,VALID,0,VALID,95.9864,VALID,0,VALID,19.4703,VALID,5,VALID,1.16211,
2011-03-27, 03:21:05,VALID,916.167,VALID,0,VALID,95.9636,VALID,0,VALID,19.4898,VALID,20,VALID,1.30859,
2011-03-27, 03:22:05,VALID,916.163,VALID,0,VALID,95.9788,VALID,0,VALID,19.4703,VALID,28,VALID,1.35625,
2011-03-27, 03:23:05,VALID,916.137,VALID,0,VALID,96.0017,VALID,0,VALID,19.4298,VALID,357,VALID,1.25742,
2011-03-27, 03:24:05,VALID,916.162,VALID,0,VALID,95.9941,VALID,0,VALID,19.4508,VALID,16,VALID,2.09375,
2011-03-27, 03:25:05,VALID,916.183,VALID,0,VALID,95.9636,VALID,0,VALID,19.4508,VALID,27,VALID,0.728516,
2011-03-27, 03:26:05,VALID,916.17,VALID,0,VALID,95.9559,VALID,0,VALID,19.4493,VALID,27,VALID,0.556641,
2011-03-27, 03:27:05,VALID,916.143,VALID,0,VALID,95.9712,VALID,0,VALID,19.4703,VALID,27,VALID,1.60938,
2011-03-27, 03:28:05,VALID,916.156,VALID,0,VALID,95.9636,VALID,0,VALID,19.4508,VALID,18,VALID,1.24805,
2011-03-27, 03:29:05,VALID,916.17,VALID,0,VALID,96.0245,VALID,0,VALID,19.4298,VALID,19,VALID,0.977734,
2011-03-27, 03:30:05,VALID,916.205,VALID,0,VALID,96.0627,VALID,0,VALID,19.4118,VALID,19,VALID,0.748828,
2011-03-27, 03:31:05,VALID,916.16,VALID,0,VALID,96.1236,VALID,0,VALID,19.3728,VALID,19,VALID,0.947656,
2011-03-27, 03:32:05,VALID,916.157,VALID,0,VALID,96.1465,VALID,0,VALID,19.3518,VALID,18,VALID,0.54375,
2011-03-27, 03:33:05,VALID,916.155,VALID,0,VALID,96.1999,VALID,0,VALID,19.3323,VALID,18,VALID,0.292969,
2011-03-27, 03:34:05,VALID,916.159,VALID,0,VALID,96.2533,VALID,0,VALID,19.3128,VALID,16,VALID,1.43672,
2011-03-27, 03:35:05,VALID,916.16,VALID,0,VALID,96.2761,VALID,0,VALID,19.3338,VALID,13,VALID,0.828906,
2011-03-27, 03:36:05,VALID,916.155,VALID,0,VALID,96.2837,VALID,0,VALID,19.3338,VALID,25,VALID,0.508594,
2011-03-27, 03:37:05,VALID,916.153,VALID,0,VALID,96.2914,VALID,0,VALID,19.3533,VALID,25,VALID,0.378906,
2011-03-27, 03:38:05,VALID,916.106,VALID,0,VALID,96.2533,VALID,0,VALID,19.3323,VALID,9,VALID,1.85469,
2011-03-27, 03:39:05,VALID,916.089,VALID,0,VALID,96.2914,VALID,0,VALID,19.3338,VALID,16,VALID,1.66562,
2011-03-27, 03:40:05,VALID,916.12,VALID,0,VALID,96.2761,VALID,0,VALID,19.3128,VALID,21,VALID,1.44727,
2011-03-27, 03:41:05,VALID,916.115,VALID,0,VALID,96.3219,VALID,0,VALID,19.3533,VALID,18,VALID,0.662891,
2011-03-27, 03:42:05,VALID,916.088,VALID,0,VALID,96.3142,VALID,0,VALID,19.3533,VALID,200,VALID,0.5,
2011-03-27, 03:43:05,VALID,916.035,VALID,0,VALID,96.3219,VALID,0,VALID,19.3338,VALID,199,VALID,0.94375,
2011-03-27, 03:44:05,VALID,915.982,VALID,0,VALID,96.3066,VALID,0,VALID,19.3338,VALID,199,VALID,0.10625,